Content
SEND FEEDBACK

Daily
Averages
Monthly
Summary
United States of America

LOLO, MONTANA


Home > North America > United States > Montana
Elevation: 4738 feet     Latitude: 46 43N     Longitude: 114 32W

WEATHER
 
SELECT A DAY
Number of Records: 204,861;   Date Range: 1/1/95 - 9/16/14
 
SHARE

PRINT THIS DATA

[ ← Previous Day ]
WEATHER ALMANAC - JANUARY 31, 2013
[ Next Day → ]
[ °C ]   °F
Weather ElementAverageHighLow
Temperature38.2 °F41 °F (12:53 pm)34 °F (10:53 pm)
Dewpoint31.6 °F33.1 °F (2:53 pm)28.9 °F (2:53 am)
Humidity77.5 %96 % (11:53 pm)67 % (2:53 am)
Barometer30.21 in30.25 in (10:53 am)30.17 in (1:38 pm)
Wind Speed5.3 mph12.7 mph (4:53 am)
Weather ElementAverage
Visibility10 mi
Wind DirectionSSW (195 °)

Weather ElementTotal
Precipitation---
Heating Degree Days27.5 (Base 65)
Averaged from 24 records on January 31, 2013
WEATHER CONDITIONS BREAKOUT
WIND DIRECTION BREAKOUT
WEATHER BY HOUR - JANUARY 31, 2013
[ °C ]   °F
Local TimeTemperatureDewpointHumidityBarometerVisibilityWind DirectionWind SpeedGust SpeedPrecipitationEventsConditions
1:53 AM37.9 °F30.0 °F73 %30.20 in10.0 miNorth (350°)6.9 mphOvercast
2:53 AM39.0 °F28.9 °F67 %30.22 in10.0 miNNW (330°)9.2 mphOvercast
3:53 AM39.0 °F30.0 °F70 %30.21 in10.0 miNNW (340°)10.4 mphOvercast
4:53 AM39.9 °F30.0 °F68 %30.22 in10.0 miNNW (330°)12.7 mphOvercast
5:53 AM39.9 °F30.0 °F68 %30.22 in10.0 miNNW (330°)10.4 mphOvercast
6:53 AM39.0 °F30.0 °F70 %30.22 in10.0 miNW (320°)10.4 mphOvercast
7:53 AM39.0 °F30.0 °F70 %30.22 in10.0 miNW (320°)12.7 mphOvercast
8:53 AM39.0 °F30.9 °F73 %30.23 in10.0 miNNW (340°)10.4 mphOvercast
9:53 AM39.0 °F30.9 °F73 %30.24 in10.0 miNorth (350°)9.2 mphOvercast
10:53 AM39.0 °F32.0 °F76 %30.25 in10.0 miNorth (350°)8.1 mphOvercast
11:53 AM39.0 °F32.0 °F76 %30.25 in10.0 miNNW (340°)9.2 mphOvercast
12:53 PM41.0 °F32.0 °F70 %30.23 in10.0 miNorth (350°)4.6 mph0.00 inOvercast
1:38 PM39.2 °F32.0 °F75 %30.17 in10.0 miSW (220°)3.5 mph0.00 inRainLight Rain
1:53 PM39.9 °F32.0 °F73 %30.23 in10.0 miCalm0.00 inRainLight Rain
2:53 PM39.0 °F33.1 °F79 %30.22 in10.0 miWest (260°)3.5 mph0.00 inOvercast
3:53 PM39.0 °F33.1 °F79 %30.22 in10.0 miCalmOvercast
4:53 PM37.9 °F33.1 °F83 %30.21 in10.0 miCalmOvercast
5:53 PM37.9 °F33.1 °F83 %30.21 in10.0 miCalmOvercast
6:53 PM37.0 °F33.1 °F86 %30.21 in10.0 miSE (140°)3.5 mphMostly Cloudy
7:53 PM36.0 °F32.0 °F86 %30.21 in10.0 miCalmOvercast
8:53 PM36.0 °F32.0 °F86 %30.20 in10.0 miCalm0.00 inRainLight Rain
9:53 PM35.1 °F32.0 °F89 %30.19 in10.0 miCalm0.00 inOvercast
10:53 PM34.0 °F32.0 °F92 %30.19 in10.0 miCalmOvercast
11:53 PM34.0 °F33.1 °F96 %30.17 in10.0 miNorth (10°)3.5 mph0.00 inRainLight Rain
Hourly data recorded from KMSO, located miles away from Lolo, Montana







STORIES FROM OUR PARTNERS